[[{"header":{"parameterUnit":"m.s-1","parameterCategory":1,"la1":30.2991,"la2":30.254,"lo1":-89.0895,"lo2":-89.0444,"dy":0.0017,"dx":0.0017,"nx":28,"ny":28,"refTime":"2024-03-24T09:00:00:Z","depth":0,"parameterNumber":2,"parameterNumberName":"U-component_of_WINDS"},"data":[0,0,0,0,0,0,0,0,0,0,0,0,0,0,0,0,0,0,0,0,0,0,0,0,0,0,0,0,0,0,0,0,0,0,0,0,0,0,0,0,0,0,0,0,0,0,0,0,0,0,0,0,0,0,0,0,0,0,-6.7847,-6.7849,0,-6.8011,-6.8013,-6.8015,-6.8028,-6.8026,-6.8024,-6.8022,-6.8194,-6.82,-6.8206,0,0,0,0,0,0,0,0,0,0,0,0,0,-6.7547,-6.7552,-6.7847,-6.7849,-6.7851,-6.8011,-6.8013,-6.8016,-6.8028,-6.8026,-6.8024,-6.8022,-6.8192,-6.8199,-6.8206,0,0,0,0,0,0,0,0,0,0,0,0,0,-6.7691,-6.7554,-6.7846,-6.7876,-6.7881,-6.8011,-6.8014,-6.8016,-6.8028,-6.8026,-6.8023,-6.802,-6.8189,-6.8198,-6.8208,-6.832,0,0,-6.8236,-6.824,0,0,0,0,0,0,0,0,-6.7683,-6.7702,-6.787,-6.7875,-6.788,-6.7996,-6.7971,-6.8118,-6.8029,-6.7972,-6.8022,-6.8019,-6.813,-6.8144,-6.8181,-6.8328,-6.8335,-6.8237,-6.8243,-6.8247,-6.8249,0,0,0,0,0,0,0,-6.7673,-6.7695,-6.7912,-6.7872,-6.7878,-6.7883,-6.79,-6.7999,-6.8065,-6.7977,-6.7978,-6.7998,-6.8133,-6.8172,-6.8185,-6.8338,-6.8237,-6.8245,-6.8251,-6.8255,-6.8585,-6.8588,0,0,0,0,0,0,-6.7657,-6.7687,-6.7907,-6.7917,-6.7772,-6.789,-6.791,-6.7962,-6.8064,-6.8077,-6.8,-6.7998,-6.8158,-6.8174,-6.8192,-6.8329,-6.8247,-6.8255,-6.8261,-6.8582,-6.8586,-6.8589,0,0,0,0,0,0,-6.765,-6.7676,-6.79,-6.7802,-6.7831,-6.7898,-6.7956,-6.7966,-6.8006,-6.8081,-6.8093,-6.8028,-6.8156,-6.8178,-6.8288,-6.8335,-6.826,-6.8268,-6.8578,-6.8583,-6.8588,-6.8604,0,0,0,0,0,0,-6.7642,-6.7674,-6.7716,-6.7803,-6.7836,-6.7992,-6.7959,-6.7971,-6.8022,-6.802,-6.811,-6.8123,-6.8156,-6.8274,-6.8297,-6.8346,-6.8276,-6.8574,-6.8581,-6.8586,-6.86,-6.8609,-6.8617,0,0,0,0,0,-6.7631,-6.7715,-6.7718,-6.7744,-6.789,-6.7995,-6.8014,-6.8049,-6.8025,-6.8069,-6.8117,-6.812,-6.8327,-6.8285,-6.8311,-6.8364,-6.8572,-6.8579,-6.8586,-6.8596,-6.8607,-6.8617,0,0,0,0,0,0,-6.7632,-6.7727,-6.7731,-6.7846,-6.7912,-6.7997,-6.8052,-6.806,-6.8135,-6.8131,-6.8173,-6.8194,-6.8301,-6.8345,-6.8296,-6.8479,-6.8447,-6.8459,-6.8446,-6.8457,-6.8465,-6.8451,-6.8283,0,0,0,0,0,-6.7645,-6.7721,-6.7801,-6.7894,-6.7927,-6.7984,-6.8031,-6.8053,-6.8124,-6.8152,-6.8209,-6.8278,-6.8359,-6.8411,-6.8489,-6.8608,-6.8627,-6.8658,-6.8666,-6.8673,-6.8682,-6.8748,-6.8762,-6.8613,-6.8613,-6.8613,0,0,-6.7674,-6.7735,-6.7781,-6.7896,-6.795,-6.8028,-6.8008,-6.8092,-6.8151,-6.8165,-6.8271,-6.8315,-6.8396,-6.851,-6.8563,-6.8549,-6.8728,-6.8682,-6.8687,-6.8693,-6.8756,-6.877,-6.8783,-6.8618,-6.8617,-6.8616,0,0,-6.7765,-6.782,-6.7903,-6.7958,-6.804,-6.8078,-6.8098,-6.8182,-6.8212,-6.8319,-6.8331,-6.8404,-6.8542,-6.8598,-6.8645,-6.8761,-6.8766,-6.8786,-6.8829,-6.8893,-6.8904,-6.8915,-6.8954,-6.8968,-6.8796,-6.8796,-6.8796,0,-6.779,-6.7908,-6.7945,-6.8029,-6.8079,-6.8097,-6.8182,-6.8234,-6.8338,-6.8372,-6.8356,-6.853,-6.8586,-6.8712,-6.8741,-6.8779,-6.8803,-6.8774,-6.89,-6.8911,-6.8921,-6.8959,-6.8974,-6.8798,-6.8798,-6.8797,-6.8797,0,-6.7934,-6.8016,-6.8074,-6.8172,-6.823,-6.8314,-6.8365,-6.842,-6.8438,-6.8477,-6.8587,-6.8655,-6.8747,-6.878,-6.8798,-6.891,-6.8899,-6.8891,-6.8859,-6.8936,-6.8973,-6.8988,-6.88,-6.88,-6.8799,-6.8799,0,0,-6.8027,-6.8147,-6.8167,-6.8212,-6.8305,-6.837,-6.8456,-6.8545,-6.859,-6.8663,-6.8735,-6.8853,-6.8846,-6.89,-6.8926,-6.8982,-6.9067,-6.8967,-6.8969,-6.8981,-6.9193,-6.9196,-6.9213,-6.9073,-6.9076,-6.9078,-6.9186,0,-6.8127,-6.8278,-6.8315,-6.8445,-6.8521,-6.854,-6.8615,-6.8681,-6.8721,-6.8793,-6.8839,-6.892,-6.8906,-6.8938,-6.8995,-6.9045,-6.911,-6.9038,-6.914,-6.9143,-6.9115,-6.9232,-6.9236,-6.9334,-6.9201,-6.9203,-6.9205,0,-6.8262,-6.8336,-6.8473,-6.8557,-6.859,-6.8656,-6.8742,-6.881,-6.8886,-6.8912,-6.8972,-6.8993,-6.9084,-6.9051,-6.9177,-6.9127,-6.9172,-6.9203,-6.9208,-6.9216,-6.9176,-6.9241,-6.9366,-6.938,-6.9228,-6.9226,-6.9225,0,-6.8313,-6.8448,-6.8547,-6.8586,-6.8686,-6.8732,-6.8777,-6.885,-6.8902,-6.8978,-6.9011,-6.9098,-6.9144,-6.9211,-6.9255,-6.9226,-6.9377,-6.9347,-6.94,-6.9399,-6.9428,-6.9425,-6.9559,-6.9462,-6.9462,-6.9462,-6.9462,0,-6.8419,-6.8501,-6.8571,-6.8632,-6.8725,-6.8769,-6.886,-6.8906,-6.8971,-6.9041,-6.9065,-6.9131,-6.9186,-6.926,-6.9296,-6.9394,-6.9416,-6.9439,-6.9447,-6.9435,-6.9432,-6.9463,-6.9456,-6.9466,-6.9465,-6.9464,-6.9463,0,-6.849,-6.854,-6.8649,-6.8736,-6.876,-6.8825,-6.89,-6.896,-6.9002,-6.9091,-6.9115,-6.9182,-6.927,-6.9321,-6.9433,-6.9457,-6.9566,-6.9572,-6.9539,-6.9542,-6.9591,-6.9585,-6.9747,-6.977,-6.966,-6.9661,-6.9662,0,-6.8552,-6.8616,-6.871,-6.8758,-6.8803,-6.8881,-6.8934,-6.8981,-6.9035,-6.9127,-6.9177,-6.9266,-6.934,-6.9481,-6.9539,-6.9625,-6.9632,-6.9684,-6.9645,-6.9631,-6.963,-6.9625,-6.9631,-6.9689,-6.969,-6.9691,-6.9691,0,-6.8657,-6.8679,-6.8753,-6.8838,-6.89,-6.8969,-6.9037,-6.9076,-6.9135,-6.9195,-6.9285,-6.9342,-6.9457,-6.9545,-6.9636,-6.9684,-6.9697,-6.9704,-6.972,-6.9707,-6.9684,-6.9695,-6.9554,-6.9699,-6.9698,-6.9697,-6.9697,-6.9697,-6.8724,-6.8781,-6.8856,-6.8939,-6.8995,-6.9059,-6.912,-6.917,-6.9246,-6.9341,-6.9366,-6.946,-6.9536,-6.966,-6.9709,-6.9785,-6.9776,-6.98,-6.9806,-6.981,-6.981,-6.9675,-6.9802,-6.9802,-6.9802,-6.9802,-6.9802,0,-6.8827,-6.8877,-6.8953,-6.9047,-6.9113,-6.9121,-6.9198,-6.9252,-6.9335,-6.9404,-6.9477,-6.9581,-6.9667,-6.9734,-6.9823,-6.9871,-6.9879,-6.9892,-6.9888,-6.9898,-6.9814,-6.979,-6.9884,-6.9884,-6.9884,-6.9884,-6.9884,-6.9884,-6.8888,-6.8985,-6.9017,-6.9143,-6.9193,-6.9284,-6.9327,-6.9387,-6.9442,-6.9557,-6.9629,-6.9672,-6.9741,-6.9835,-6.9915,-6.9933,-6.9964,-6.9975,-6.9993,-6.9913,-6.9904,-6.9895,-6.9873,-6.9982,-6.9982,-7.0071,-7.0072,-7.0072]},{"header":{"parameterUnit":"m.s-1","parameterCategory":1,"la1":30.2991,"la2":30.254,"lo1":-89.0895,"lo2":-89.0444,"dy":0.0017,"dx":0.0017,"nx":28,"ny":28,"refTime":"2024-03-24T09:00:00:Z","depth":0,"parameterNumber":3,"parameterNumberName":"V-component_of_WINDS"},"data":[0,0,0,0,0,0,0,0,0,0,0,0,0,0,0,0,0,0,0,0,0,0,0,0,0,0,0,0,0,0,0,0,0,0,0,0,0,0,0,0,0,0,0,0,0,0,0,0,0,0,0,0,0,0,0,0,0,0,6.2937,6.2938,0,6.3068,6.307,6.3071,6.3085,6.3084,6.3083,6.3081,6.3212,6.3217,6.3222,0,0,0,0,0,0,0,0,0,0,0,0,0,6.2697,6.2701,6.2937,6.2939,6.294,6.3068,6.307,6.3072,6.3086,6.3084,6.3082,6.3081,6.3211,6.3216,6.3222,0,0,0,0,0,0,0,0,0,0,0,0,0,6.2812,6.2702,6.2937,6.2963,6.2966,6.3068,6.307,6.3072,6.3086,6.3084,6.3082,6.308,6.3209,6.3216,6.3223,6.3306,0,0,6.3244,6.3247,0,0,0,0,0,0,0,0,6.2805,6.282,6.2957,6.2961,6.2965,6.3059,6.3033,6.3151,6.3086,6.304,6.3081,6.3079,6.3163,6.3173,6.3202,6.3313,6.3318,6.3245,6.3249,6.3252,6.3254,0,0,0,0,0,0,0,6.2797,6.2815,6.2989,6.2959,6.2964,6.2967,6.2981,6.3056,6.3111,6.3044,6.3046,6.3061,6.3164,6.3195,6.3205,6.332,6.3245,6.3251,6.3256,6.3258,6.3509,6.3511,0,0,0,0,0,0,6.2785,6.2808,6.2985,6.2993,6.2879,6.2973,6.2989,6.3031,6.311,6.312,6.3063,6.3061,6.3184,6.3197,6.321,6.3316,6.3252,6.3259,6.3263,6.3507,6.351,6.3512,0,0,0,0,0,0,6.2779,6.28,6.2979,6.2901,6.2924,6.298,6.3026,6.3034,6.3065,6.3124,6.3134,6.3084,6.3183,6.32,6.3283,6.3321,6.3262,6.3269,6.3504,6.3508,6.3511,6.3527,0,0,0,0,0,0,6.2772,6.2798,6.2831,6.2902,6.2928,6.3051,6.3028,6.3038,6.3078,6.3077,6.3147,6.3157,6.3183,6.3273,6.3291,6.3329,6.3274,6.3501,6.3506,6.351,6.3523,6.353,6.3537,0,0,0,0,0,6.2764,6.2828,6.2832,6.2854,6.297,6.3053,6.3068,6.3098,6.3081,6.3114,6.3153,6.3154,6.3313,6.3281,6.3301,6.3343,6.3499,6.3504,6.351,6.352,6.3529,6.3536,0,0,0,0,0,0,6.2758,6.2838,6.2843,6.2933,6.2986,6.3055,6.3098,6.3106,6.3165,6.3161,6.3195,6.3211,6.3293,6.3326,6.3289,6.343,6.3404,6.3414,6.3405,6.3414,6.3421,6.3412,6.328,0,0,0,0,0,6.2768,6.2829,6.2895,6.2968,6.2995,6.3042,6.3079,6.3098,6.3154,6.3176,6.3221,6.3274,6.3337,6.3377,6.3437,6.3528,6.3544,6.3566,6.3573,6.3578,6.3586,6.364,6.3651,6.353,6.353,6.353,0,0,6.2787,6.2839,6.2875,6.2968,6.3012,6.3075,6.3061,6.3127,6.3175,6.3186,6.3269,6.3303,6.3365,6.3454,6.3494,6.3483,6.3624,6.3585,6.3589,6.3594,6.3646,6.3658,6.3668,6.3534,6.3533,6.3533,0,0,6.2857,6.29,6.2968,6.3013,6.308,6.3111,6.3127,6.3196,6.322,6.3304,6.3315,6.3371,6.3477,6.3522,6.3559,6.3648,6.3653,6.3666,6.3702,6.3753,6.3763,6.3771,6.3806,6.3817,6.3674,6.3674,6.3674,0,6.2872,6.2969,6.3,6.3069,6.311,6.3125,6.3194,6.3235,6.3318,6.3346,6.3333,6.3469,6.3511,6.3612,6.3634,6.3662,6.3683,6.3659,6.3759,6.3768,6.3777,6.381,6.3822,6.3676,6.3675,6.3675,6.3675,0,6.2986,6.3053,6.3099,6.3182,6.3228,6.3295,6.3338,6.3381,6.3396,6.3429,6.3515,6.3567,6.364,6.3665,6.3679,6.3768,6.376,6.3752,6.3728,6.3789,6.3821,6.3833,6.3678,6.3677,6.3677,6.3676,0,0,6.3055,6.3156,6.3173,6.3212,6.3288,6.334,6.3409,6.3482,6.352,6.3576,6.3636,6.3727,6.3722,6.3763,6.3783,6.3828,6.3898,6.3815,6.3817,6.3831,6.4003,6.401,6.4024,6.3902,6.3904,6.3906,6.3998,0,6.3135,6.3259,6.3291,6.3397,6.3461,6.3477,6.3538,6.3591,6.3624,6.3682,6.3718,6.3783,6.377,6.3796,6.3841,6.388,6.3934,6.3874,6.3958,6.3961,6.3944,6.404,6.4047,6.4131,6.4011,6.4013,6.4014,0,6.3244,6.3306,6.342,6.3491,6.3519,6.3572,6.3644,6.3699,6.376,6.3781,6.3829,6.3845,6.3918,6.3889,6.3991,6.395,6.3986,6.4011,6.4015,6.4025,6.3992,6.4055,6.4158,6.4172,6.4034,6.4032,6.4031,0,6.3286,6.3398,6.3481,6.3513,6.3598,6.3636,6.3672,6.3732,6.3775,6.3836,6.3865,6.3933,6.3971,6.4024,6.4058,6.4033,6.4158,6.4131,6.4179,6.4178,6.4205,6.4203,6.4318,6.4225,6.4225,6.4225,6.4224,0,6.3373,6.3442,6.3502,6.3553,6.3632,6.3667,6.3744,6.3781,6.3835,6.3894,6.391,6.3965,6.4006,6.4067,6.4094,6.4176,6.4192,6.4212,6.4218,6.4212,6.421,6.4237,6.4233,6.4228,6.4227,6.4227,6.4226,0,6.3434,6.3476,6.3569,6.3642,6.3662,6.3717,6.3779,6.383,6.3864,6.3939,6.3958,6.4011,6.4084,6.4124,6.4213,6.4232,6.4324,6.4326,6.4304,6.4308,6.4354,6.435,6.4492,6.4514,6.4404,6.4405,6.4405,0,6.3488,6.3542,6.3622,6.3664,6.3702,6.3768,6.3813,6.385,6.3896,6.3972,6.4014,6.4088,6.4149,6.4264,6.4311,6.438,6.4386,6.4431,6.4396,6.4389,6.439,6.4387,6.4394,6.4437,6.4438,6.4439,6.444,0,6.358,6.3599,6.3663,6.3736,6.3789,6.3848,6.3906,6.3938,6.3985,6.4036,6.4112,6.416,6.4253,6.4327,6.4401,6.4438,6.4448,6.445,6.4466,6.446,6.4446,6.4457,6.4323,6.4447,6.4447,6.4446,6.4446,6.4445,6.3641,6.3691,6.3756,6.3828,6.3876,6.393,6.3983,6.4024,6.4089,6.4169,6.4187,6.4267,6.4329,6.443,6.4469,6.4533,6.4524,6.4545,6.4551,6.4556,6.456,6.4435,6.4546,6.4546,6.4546,6.4545,6.4545,0,6.3736,6.378,6.3845,6.3927,6.3984,6.3989,6.4054,6.4101,6.4172,6.423,6.4291,6.4379,6.4451,6.4504,6.4578,6.4619,6.4625,6.4637,6.4636,6.4645,6.4562,6.4543,6.4631,6.4631,6.4631,6.4631,6.4631,6.4631,6.3793,6.3879,6.3906,6.4017,6.4059,6.414,6.4177,6.4227,6.4274,6.4372,6.4433,6.4468,6.4524,6.4603,6.467,6.4683,6.4711,6.4723,6.4737,6.4659,6.465,6.4641,6.4624,6.4728,6.4728,6.4815,6.4816,6.4817]}]]